Time,TemperatureF,DewpointF,PressureIn,WindDirection,WindDirectionDegrees,WindSpeedMPH,WindSpeedGustMPH,Humidity,HourlyPrecipIn,Conditions,Clouds,dailyrainin,SoftwareType,DateUTC
2013-02-04 00:04:00,42.4,28.7,30.42,SW,225,0.0,0.0,58,0.00,,,0.00,pywws,2013-02-04 05:04:00,
2013-02-04 00:09:00,42.4,28.7,30.43,West,270,0.7,2.2,58,0.00,,,0.00,pywws,2013-02-04 05:09:00,
2013-02-04 00:14:00,42.4,29.1,30.43,NW,315,0.0,1.6,59,0.00,,,0.00,pywws,2013-02-04 05:14:00,
2013-02-04 00:19:00,42.4,28.7,30.43,NW,315,0.0,1.6,58,0.00,,,0.00,pywws,2013-02-04 05:19:00,
2013-02-04 00:24:00,42.4,28.7,30.44,West,270,0.7,2.2,58,0.00,,,0.00,pywws,2013-02-04 05:24:00,
2013-02-04 00:34:00,42.3,29.0,30.44,North,0,0.7,1.6,59,0.00,,,0.00,pywws,2013-02-04 05:34:00,
2013-02-04 00:39:00,41.7,29.3,30.44,NE,45,0.7,2.2,61,0.00,,,0.00,pywws,2013-02-04 05:39:00,
2013-02-04 00:44:00,41.5,29.1,30.45,SE,135,0.0,0.7,61,0.00,,,0.00,pywws,2013-02-04 05:44:00,
2013-02-04 00:49:00,41.2,28.8,30.45,SE,135,0.0,0.0,61,0.00,,,0.00,pywws,2013-02-04 05:49:00,
2013-02-04 00:54:00,40.8,28.8,30.45,SE,135,0.0,0.0,62,0.00,,,0.00,pywws,2013-02-04 05:54:00,
2013-02-04 01:04:00,40.5,28.9,30.45,SE,135,0.0,0.0,63,0.00,,,0.00,pywws,2013-02-04 06:04:00,
2013-02-04 01:09:00,39.6,28.4,30.45,SE,135,0.0,0.0,64,0.00,,,0.00,pywws,2013-02-04 06:09:00,
2013-02-04 01:14:00,39.6,28.4,30.45,NW,315,0.0,0.0,64,0.00,,,0.00,pywws,2013-02-04 06:14:00,
2013-02-04 01:19:00,39.6,28.4,30.46,NW,315,0.0,0.0,64,0.00,,,0.00,pywws,2013-02-04 06:19:00,
2013-02-04 01:24:00,39.4,28.2,30.46,East,90,0.0,0.7,64,0.00,,,0.00,pywws,2013-02-04 06:24:00,
2013-02-04 01:34:00,39.0,28.6,30.46,South,180,0.0,0.0,66,0.00,,,0.00,pywws,2013-02-04 06:34:00,
2013-02-04 01:39:00,38.5,28.9,30.47,East,90,0.0,0.0,68,0.00,,,0.00,pywws,2013-02-04 06:39:00,
2013-02-04 01:44:00,38.1,28.5,30.47,South,180,0.0,0.0,68,0.00,,,0.00,pywws,2013-02-04 06:44:00,
2013-02-04 01:49:00,37.8,29.2,30.47,North,0,0.0,0.0,71,0.00,,,0.00,pywws,2013-02-04 06:49:00,
2013-02-04 01:54:00,37.4,28.5,30.47,South,180,0.0,0.0,70,0.00,,,0.00,pywws,2013-02-04 06:54:00,
2013-02-04 02:04:00,37.2,28.4,30.47,South,180,0.0,0.0,70,0.00,,,0.00,pywws,2013-02-04 07:04:00,
2013-02-04 02:09:00,36.3,28.2,30.48,SE,135,0.0,0.0,72,0.00,,,0.00,pywws,2013-02-04 07:09:00,
2013-02-04 02:14:00,36.3,28.2,30.48,SE,135,0.0,0.0,72,0.00,,,0.00,pywws,2013-02-04 07:14:00,
2013-02-04 02:19:00,36.3,28.2,30.48,SE,135,0.0,0.0,72,0.00,,,0.00,pywws,2013-02-04 07:19:00,
2013-02-04 02:24:00,35.6,27.8,30.49,SE,135,0.0,0.0,73,0.00,,,0.00,pywws,2013-02-04 07:24:00,
2013-02-04 02:34:00,35.2,27.5,30.49,SE,135,0.0,0.0,73,0.00,,,0.00,pywws,2013-02-04 07:34:00,
2013-02-04 02:39:00,34.9,27.4,30.49,SE,135,0.0,0.0,74,0.00,,,0.00,pywws,2013-02-04 07:39:00,
2013-02-04 02:44:00,34.5,27.4,30.49,SE,135,0.0,0.0,75,0.00,,,0.00,pywws,2013-02-04 07:44:00,
2013-02-04 02:49:00,34.3,27.3,30.50,SE,135,0.0,0.0,75,0.00,,,0.00,pywws,2013-02-04 07:49:00,
2013-02-04 02:54:00,34.3,27.3,30.50,SE,135,0.0,0.0,75,0.00,,,0.00,pywws,2013-02-04 07:54:00,
2013-02-04 03:04:00,34.2,27.4,30.50,SE,135,0.0,0.0,76,0.00,,,0.00,pywws,2013-02-04 08:04:00,
2013-02-04 03:09:00,34.0,27.5,30.50,SE,135,0.0,0.0,77,0.00,,,0.00,pywws,2013-02-04 08:09:00,
2013-02-04 03:14:00,34.0,27.5,30.50,SE,135,0.0,0.0,77,0.00,,,0.00,pywws,2013-02-04 08:14:00,
2013-02-04 03:19:00,34.0,27.5,30.50,SE,135,0.0,0.0,77,0.00,,,0.00,pywws,2013-02-04 08:19:00,
2013-02-04 03:24:00,33.6,27.2,30.51,SE,135,0.0,0.0,77,0.00,,,0.00,pywws,2013-02-04 08:24:00,
2013-02-04 03:34:00,33.6,27.5,30.51,SW,225,0.0,0.0,78,0.00,,,0.00,pywws,2013-02-04 08:34:00,
2013-02-04 03:39:00,33.3,27.5,30.52,SE,135,0.0,0.0,79,0.00,,,0.00,pywws,2013-02-04 08:39:00,
2013-02-04 03:44:00,33.1,27.3,30.52,SE,135,0.0,0.0,79,0.00,,,0.00,pywws,2013-02-04 08:44:00,
2013-02-04 03:49:00,32.9,27.1,30.52,SE,135,0.0,0.0,79,0.00,,,0.00,pywws,2013-02-04 08:49:00,
2013-02-04 03:54:00,32.7,27.2,30.52,SE,135,0.0,0.0,80,0.00,,,0.00,pywws,2013-02-04 08:54:00,
2013-02-04 04:04:00,32.7,27.2,30.52,SE,135,0.0,0.0,80,0.00,,,0.00,pywws,2013-02-04 09:04:00,
2013-02-04 04:09:00,32.7,27.2,30.53,SE,135,0.0,0.0,80,0.00,,,0.00,pywws,2013-02-04 09:09:00,
2013-02-04 04:14:00,32.4,27.2,30.53,SE,135,0.0,0.0,81,0.00,,,0.00,pywws,2013-02-04 09:14:00,
2013-02-04 04:19:00,32.4,27.2,30.52,West,270,0.0,0.0,81,0.00,,,0.00,pywws,2013-02-04 09:19:00,
2013-02-04 04:24:00,32.2,27.0,30.52,West,270,0.0,0.0,81,0.00,,,0.00,pywws,2013-02-04 09:24:00,
2013-02-04 04:34:00,32.0,27.1,30.50,SE,135,0.0,0.0,82,0.00,,,0.00,pywws,2013-02-04 09:34:00,
2013-02-04 04:39:00,31.8,27.5,30.48,SE,135,0.0,0.0,84,0.00,,,0.00,pywws,2013-02-04 09:39:00,
2013-02-04 04:44:00,32.0,27.4,30.47,SE,135,0.0,0.0,83,0.00,,,0.00,pywws,2013-02-04 09:44:00,
2013-02-04 04:49:00,31.8,27.3,30.47,SE,135,0.0,0.0,83,0.00,,,0.00,pywws,2013-02-04 09:49:00,
2013-02-04 04:54:00,31.6,27.1,30.46,West,270,0.0,0.0,83,0.00,,,0.00,pywws,2013-02-04 09:54:00,
2013-02-04 05:04:00,31.6,27.1,30.45,West,270,0.0,0.0,83,0.00,,,0.00,pywws,2013-02-04 10:04:00,
2013-02-04 05:09:00,31.3,26.7,30.44,West,270,0.0,0.0,83,0.00,,,0.00,pywws,2013-02-04 10:09:00,
2013-02-04 05:14:00,31.3,26.7,30.44,West,270,0.0,0.0,83,0.00,,,0.00,pywws,2013-02-04 10:14:00,
2013-02-04 05:19:00,31.1,26.6,30.43,West,270,0.0,0.0,83,0.00,,,0.00,pywws,2013-02-04 10:19:00,
2013-02-04 05:24:00,31.1,26.6,30.43,SE,135,0.0,0.0,83,0.00,,,0.00,pywws,2013-02-04 10:24:00,
2013-02-04 05:34:00,31.1,26.8,30.42,NW,315,0.0,0.0,84,0.00,,,0.00,pywws,2013-02-04 10:34:00,
2013-02-04 05:39:00,31.5,27.2,30.42,East,90,0.0,0.0,84,0.00,,,0.00,pywws,2013-02-04 10:39:00,
2013-02-04 05:44:00,31.5,26.9,30.42,SE,135,0.0,0.0,83,0.00,,,0.00,pywws,2013-02-04 10:44:00,
2013-02-04 05:49:00,31.6,27.4,30.43,West,270,0.0,0.0,84,0.00,,,0.00,pywws,2013-02-04 10:49:00,
2013-02-04 05:54:00,31.5,27.2,30.43,West,270,0.0,0.0,84,0.00,,,0.00,pywws,2013-02-04 10:54:00,
2013-02-04 06:04:00,31.3,26.7,30.44,NW,315,0.0,0.0,83,0.00,,,0.00,pywws,2013-02-04 11:04:00,
2013-02-04 06:09:00,30.9,26.7,30.45,NW,315,0.0,0.0,84,0.00,,,0.00,pywws,2013-02-04 11:09:00,
2013-02-04 06:14:00,30.9,26.7,30.45,NW,315,0.0,0.0,84,0.00,,,0.00,pywws,2013-02-04 11:14:00,
2013-02-04 06:19:00,30.9,26.7,30.44,NW,315,0.0,0.0,84,0.00,,,0.00,pywws,2013-02-04 11:19:00,
2013-02-04 06:24:00,30.9,26.7,30.44,NW,315,0.0,0.0,84,0.00,,,0.00,pywws,2013-02-04 11:24:00,
2013-02-04 06:34:00,31.1,26.8,30.43,NW,315,0.0,0.0,84,0.00,,,0.00,pywws,2013-02-04 11:34:00,
2013-02-04 06:39:00,30.9,27.0,30.42,NW,315,0.0,0.0,85,0.00,,,0.00,pywws,2013-02-04 11:39:00,
2013-02-04 06:44:00,30.9,27.0,30.42,NW,315,0.0,0.0,85,0.00,,,0.00,pywws,2013-02-04 11:44:00,
2013-02-04 06:49:00,30.7,26.8,30.41,NW,315,0.0,0.0,85,0.00,,,0.00,pywws,2013-02-04 11:49:00,
2013-02-04 06:54:00,30.6,26.6,30.41,NW,315,0.0,0.0,85,0.00,,,0.00,pywws,2013-02-04 11:54:00,
2013-02-04 07:04:00,30.6,26.6,30.40,West,270,0.0,0.0,85,0.00,,,0.00,pywws,2013-02-04 12:04:00,
2013-02-04 07:09:00,30.6,26.6,30.40,West,270,0.0,0.0,85,0.00,,,0.00,pywws,2013-02-04 12:09:00,
2013-02-04 07:14:00,30.7,26.8,30.40,West,270,0.0,0.0,85,0.00,,,0.00,pywws,2013-02-04 12:14:00,
2013-02-04 07:19:00,31.1,27.1,30.40,West,270,0.0,0.0,85,0.00,,,0.00,pywws,2013-02-04 12:19:00,
2013-02-04 07:24:00,31.1,27.1,30.39,West,270,0.0,0.0,85,0.00,,,0.00,pywws,2013-02-04 12:24:00,
2013-02-04 07:34:00,31.3,27.6,30.39,South,180,0.0,0.0,86,0.00,,,0.00,pywws,2013-02-04 12:34:00,
2013-02-04 07:39:00,31.5,27.5,30.40,South,180,0.0,0.0,85,0.00,,,0.00,pywws,2013-02-04 12:39:00,
2013-02-04 07:44:00,31.8,27.8,30.40,East,90,0.0,0.0,85,0.00,,,0.00,pywws,2013-02-04 12:44:00,
2013-02-04 07:49:00,32.0,28.0,30.40,South,180,0.0,0.0,85,0.00,,,0.00,pywws,2013-02-04 12:49:00,
2013-02-04 07:54:00,32.2,28.2,30.40,NW,315,0.7,1.6,85,0.00,,,0.00,pywws,2013-02-04 12:54:00,
2013-02-04 08:04:00,32.4,28.4,30.39,NW,315,0.0,0.0,85,0.00,,,0.00,pywws,2013-02-04 13:04:00,
2013-02-04 08:09:00,32.7,28.7,30.36,SW,225,0.0,0.0,85,0.00,,,0.00,pywws,2013-02-04 13:09:00,
2013-02-04 08:14:00,33.1,29.1,30.34,West,270,0.7,1.6,85,0.00,,,0.00,pywws,2013-02-04 13:14:00,
2013-02-04 08:19:00,33.4,29.1,30.34,SW,225,0.0,0.7,84,0.00,,,0.00,pywws,2013-02-04 13:19:00,
2013-02-04 08:24:00,33.8,29.5,30.33,South,180,0.0,0.0,84,0.00,,,0.00,pywws,2013-02-04 13:24:00,
2013-02-04 08:34:00,34.3,29.4,30.32,SW,225,0.0,1.6,82,0.00,,,0.00,pywws,2013-02-04 13:34:00,
2013-02-04 08:38:00,35.6,28.8,30.31,SW,225,0.7,1.6,76,0.00,,,0.00,pywws,2013-02-04 13:38:00,
2013-02-04 08:43:00,36.3,28.8,30.31,NE,45,0.0,0.0,74,0.00,,,0.00,pywws,2013-02-04 13:43:00,
2013-02-04 08:48:00,36.9,29.0,30.30,South,180,0.0,0.0,73,0.00,,,0.00,pywws,2013-02-04 13:48:00,
2013-02-04 08:53:00,37.4,28.9,30.29,SE,135,0.0,0.0,71,0.00,,,0.00,pywws,2013-02-04 13:53:00,
2013-02-04 09:04:00,37.8,28.5,30.29,SE,135,0.7,1.6,69,0.00,,,0.00,pywws,2013-02-04 14:04:00,
2013-02-04 09:09:00,38.5,27.4,30.28,North,0,0.0,0.7,64,0.00,,,0.00,pywws,2013-02-04 14:09:00,
2013-02-04 09:14:00,39.0,27.5,30.28,SE,135,0.0,0.7,63,0.00,,,0.00,pywws,2013-02-04 14:14:00,
2013-02-04 09:19:00,39.4,27.8,30.28,South,180,0.0,0.0,63,0.00,,,0.00,pywws,2013-02-04 14:19:00,
2013-02-04 09:24:00,39.4,27.5,30.29,SE,135,0.0,0.7,62,0.00,,,0.00,pywws,2013-02-04 14:24:00,
2013-02-04 09:34:00,40.3,28.3,30.29,SE,135,0.0,1.6,62,0.00,,,0.00,pywws,2013-02-04 14:34:00,
2013-02-04 09:39:00,40.8,28.0,30.31,SE,135,0.0,0.7,60,0.00,,,0.00,pywws,2013-02-04 14:39:00,
2013-02-04 09:44:00,41.4,28.1,30.32,SE,135,0.7,1.6,59,0.00,,,0.00,pywws,2013-02-04 14:44:00,
2013-02-04 09:49:00,41.7,28.0,30.32,SE,135,0.0,1.6,58,0.00,,,0.00,pywws,2013-02-04 14:49:00,
2013-02-04 09:54:00,41.9,27.8,30.33,South,180,0.0,0.7,57,0.00,,,0.00,pywws,2013-02-04 14:54:00,
2013-02-04 10:04:00,42.3,27.7,30.33,East,90,0.0,0.7,56,0.00,,,0.00,pywws,2013-02-04 15:04:00,
2013-02-04 10:08:00,42.3,26.4,30.34,SSE,158,1.6,2.2,53,0.00,,,0.00,pywws,2013-02-04 15:08:00,
2013-02-04 10:13:00,43.0,27.0,30.33,NE,45,1.6,2.2,53,0.00,,,0.00,pywws,2013-02-04 15:13:00,
2013-02-04 10:18:00,43.7,26.3,30.32,SSE,158,2.2,3.8,50,0.00,,,0.00,pywws,2013-02-04 15:18:00,
2013-02-04 10:23:00,44.1,27.1,30.32,SE,135,0.7,2.2,51,0.00,,,0.00,pywws,2013-02-04 15:23:00,
2013-02-04 10:34:00,44.2,25.8,30.31,SE,135,1.6,3.8,48,0.00,,,0.00,pywws,2013-02-04 15:34:00,
2013-02-04 10:39:00,44.6,25.6,30.29,SE,135,1.6,3.1,47,0.00,,,0.00,pywws,2013-02-04 15:39:00,
2013-02-04 10:44:00,45.7,26.1,30.29,ENE,68,1.6,3.1,46,0.00,,,0.00,pywws,2013-02-04 15:44:00,
2013-02-04 10:49:00,45.9,25.2,30.28,South,180,0.7,3.1,44,0.00,,,0.00,pywws,2013-02-04 15:49:00,
2013-02-04 10:54:00,46.0,25.4,30.27,SE,135,3.8,4.5,44,0.00,,,0.00,pywws,2013-02-04 15:54:00,
2013-02-04 11:04:00,45.9,25.7,30.27,SE,135,2.2,3.1,45,0.00,,,0.00,pywws,2013-02-04 16:04:00,
2013-02-04 11:09:00,46.6,25.8,30.27,East,90,0.7,3.1,44,0.00,,,0.00,pywws,2013-02-04 16:09:00,
2013-02-04 11:14:00,46.8,26.0,30.28,SE,135,1.6,3.1,44,0.00,,,0.00,pywws,2013-02-04 16:14:00,
2013-02-04 11:19:00,46.8,26.0,30.28,South,180,1.6,2.2,44,0.00,,,0.00,pywws,2013-02-04 16:19:00,
2013-02-04 11:24:00,47.1,25.8,30.29,WSW,248,1.6,3.1,43,0.00,,,0.00,pywws,2013-02-04 16:24:00,
2013-02-04 11:34:00,47.3,25.4,30.29,East,90,1.6,3.1,42,0.00,,,0.00,pywws,2013-02-04 16:34:00,
2013-02-04 11:38:00,47.8,25.9,30.30,South,180,0.7,2.2,42,0.00,,,0.00,pywws,2013-02-04 16:38:00,
2013-02-04 11:43:00,48.2,26.8,30.31,NE,45,0.0,1.6,43,0.00,,,0.00,pywws,2013-02-04 16:43:00,
2013-02-04 11:48:00,48.4,25.2,30.31,SE,135,2.2,4.5,40,0.00,,,0.00,pywws,2013-02-04 16:48:00,
2013-02-04 11:53:00,48.2,25.6,30.31,West,270,0.0,1.6,41,0.00,,,0.00,pywws,2013-02-04 16:53:00,
2013-02-04 12:04:00,48.7,26.1,30.32,NNE,22,0.7,2.2,41,0.00,,,0.00,pywws,2013-02-04 17:04:00,
2013-02-04 12:09:00,48.4,25.2,30.32,South,180,0.0,1.6,40,0.00,,,0.00,pywws,2013-02-04 17:09:00,
2013-02-04 12:14:00,49.1,25.2,30.33,SW,225,0.7,2.2,39,0.00,,,0.00,pywws,2013-02-04 17:14:00,
2013-02-04 12:19:00,49.3,24.8,30.33,South,180,0.0,1.6,38,0.00,,,0.00,pywws,2013-02-04 17:19:00,
2013-02-04 12:24:00,49.5,26.2,30.33,SW,225,1.6,3.1,40,0.00,,,0.00,pywws,2013-02-04 17:24:00,
2013-02-04 12:34:00,49.6,25.7,30.32,East,90,0.7,2.2,39,0.00,,,0.00,pywws,2013-02-04 17:34:00,
2013-02-04 12:39:00,48.7,24.3,30.30,SE,135,0.7,2.2,38,0.00,,,0.00,pywws,2013-02-04 17:39:00,
2013-02-04 12:44:00,48.9,25.1,30.29,SW,225,0.0,1.6,39,0.00,,,0.00,pywws,2013-02-04 17:44:00,
2013-02-04 12:49:00,49.5,25.5,30.28,East,90,0.7,1.6,39,0.00,,,0.00,pywws,2013-02-04 17:49:00,
2013-02-04 12:54:00,49.6,26.3,30.27,South,180,2.2,3.8,40,0.00,,,0.00,pywws,2013-02-04 17:54:00,
2013-02-04 13:04:00,49.5,25.5,30.26,West,270,1.6,3.1,39,0.00,,,0.00,pywws,2013-02-04 18:04:00,
2013-02-04 13:09:00,49.5,24.9,30.26,South,180,0.7,2.2,38,0.00,,,0.00,pywws,2013-02-04 18:09:00,
2013-02-04 13:14:00,49.6,25.7,30.27,North,0,0.7,1.6,39,0.00,,,0.00,pywws,2013-02-04 18:14:00,
2013-02-04 13:19:00,49.8,25.2,30.27,SE,135,0.7,2.2,38,0.00,,,0.00,pywws,2013-02-04 18:19:00,
2013-02-04 13:24:00,50.0,25.4,30.28,South,180,0.0,0.7,38,0.00,,,0.00,pywws,2013-02-04 18:24:00,
2013-02-04 13:34:00,50.0,24.8,30.28,South,180,0.0,1.6,37,0.00,,,0.00,pywws,2013-02-04 18:34:00,
2013-02-04 13:39:00,50.7,24.7,30.29,SE,135,0.7,2.2,36,0.00,,,0.00,pywws,2013-02-04 18:39:00,
2013-02-04 13:44:00,51.1,25.1,30.29,North,0,0.0,0.7,36,0.00,,,0.00,pywws,2013-02-04 18:44:00,
2013-02-04 13:49:00,51.6,25.5,30.29,West,270,0.0,1.6,36,0.00,,,0.00,pywws,2013-02-04 18:49:00,
2013-02-04 13:54:00,51.4,24.7,30.30,East,90,0.7,2.2,35,0.00,,,0.00,pywws,2013-02-04 18:54:00,
2013-02-04 14:04:00,51.3,24.6,30.30,SE,135,1.6,3.8,35,0.00,,,0.00,pywws,2013-02-04 19:04:00,
2013-02-04 14:09:00,51.3,25.2,30.31,South,180,0.7,2.2,36,0.00,,,0.00,pywws,2013-02-04 19:09:00,
2013-02-04 14:14:00,51.3,24.6,30.31,South,180,1.6,2.2,35,0.00,,,0.00,pywws,2013-02-04 19:14:00,
2013-02-04 14:19:00,51.3,24.6,30.31,SSW,202,0.7,2.2,35,0.00,,,0.00,pywws,2013-02-04 19:19:00,
2013-02-04 14:24:00,51.1,23.7,30.32,SE,135,1.6,2.2,34,0.00,,,0.00,pywws,2013-02-04 19:24:00,
2013-02-04 14:34:00,50.9,24.2,30.32,South,180,0.7,2.2,35,0.00,,,0.00,pywws,2013-02-04 19:34:00,
2013-02-04 14:38:00,51.1,24.4,30.32,North,0,0.0,1.6,35,0.00,,,0.00,pywws,2013-02-04 19:38:00,
2013-02-04 14:43:00,51.1,24.4,30.32,SSE,158,1.6,2.2,35,0.00,,,0.00,pywws,2013-02-04 19:43:00,
2013-02-04 14:48:00,51.1,24.4,30.33,East,90,0.7,2.2,35,0.00,,,0.00,pywws,2013-02-04 19:48:00,
2013-02-04 14:53:00,50.9,23.5,30.33,South,180,1.6,2.2,34,0.00,,,0.00,pywws,2013-02-04 19:53:00,
2013-02-04 15:04:00,50.9,24.9,30.33,South,180,0.7,1.6,36,0.00,,,0.00,pywws,2013-02-04 20:04:00,
2013-02-04 15:09:00,50.7,24.7,30.31,West,270,0.7,1.6,36,0.00,,,0.00,pywws,2013-02-04 20:09:00,
2013-02-04 15:14:00,50.5,25.2,30.30,SE,135,0.7,3.1,37,0.00,,,0.00,pywws,2013-02-04 20:14:00,
2013-02-04 15:19:00,49.8,24.0,30.29,ESE,112,0.7,2.2,36,0.00,,,0.00,pywws,2013-02-04 20:19:00,
2013-02-04 15:24:00,49.8,24.0,30.27,WSW,248,2.2,3.1,36,0.00,,,0.00,pywws,2013-02-04 20:24:00,
2013-02-04 15:34:00,50.5,24.6,30.27,SE,135,0.0,1.6,36,0.00,,,0.00,pywws,2013-02-04 20:34:00,
2013-02-04 15:38:00,50.9,25.6,30.27,South,180,0.0,0.7,37,0.00,,,0.00,pywws,2013-02-04 20:38:00,
2013-02-04 15:43:00,50.9,25.6,30.27,SE,135,2.2,4.5,37,0.00,,,0.00,pywws,2013-02-04 20:43:00,
2013-02-04 15:48:00,50.7,25.4,30.28,South,180,1.6,3.8,37,0.00,,,0.00,pywws,2013-02-04 20:48:00,
2013-02-04 15:53:00,50.9,26.2,30.28,SW,225,1.6,3.1,38,0.00,,,0.00,pywws,2013-02-04 20:53:00,
2013-02-04 16:04:00,50.7,25.4,30.29,SE,135,1.6,3.1,37,0.00,,,0.00,pywws,2013-02-04 21:04:00,
2013-02-04 16:09:00,50.9,26.8,30.29,East,90,0.0,1.6,39,0.00,,,0.00,pywws,2013-02-04 21:09:00,
2013-02-04 16:14:00,50.9,26.2,30.30,SE,135,2.2,3.8,38,0.00,,,0.00,pywws,2013-02-04 21:14:00,
2013-02-04 16:19:00,51.1,27.0,30.30,East,90,0.0,0.7,39,0.00,,,0.00,pywws,2013-02-04 21:19:00,
2013-02-04 16:24:00,51.3,27.2,30.30,South,180,2.2,3.8,39,0.00,,,0.00,pywws,2013-02-04 21:24:00,
2013-02-04 16:34:00,51.1,27.0,30.31,West,270,0.0,1.6,39,0.00,,,0.00,pywws,2013-02-04 21:34:00,
2013-02-04 16:38:00,50.9,26.8,30.31,SE,135,1.6,2.2,39,0.00,,,0.00,pywws,2013-02-04 21:38:00,
2013-02-04 16:43:00,50.7,26.7,30.31,SW,225,0.7,2.2,39,0.00,,,0.00,pywws,2013-02-04 21:43:00,
2013-02-04 16:48:00,50.7,26.7,30.32,SE,135,0.7,1.6,39,0.00,,,0.00,pywws,2013-02-04 21:48:00,
2013-02-04 16:53:00,50.5,25.9,30.32,SE,135,1.6,3.1,38,0.00,,,0.00,pywws,2013-02-04 21:53:00,
2013-02-04 17:04:00,50.5,26.5,30.32,SE,135,1.6,2.2,39,0.00,,,0.00,pywws,2013-02-04 22:04:00,
2013-02-04 17:09:00,50.4,27.6,30.32,SE,135,0.0,1.6,41,0.00,,,0.00,pywws,2013-02-04 22:09:00,
2013-02-04 17:14:00,50.2,27.4,30.32,South,180,0.7,1.6,41,0.00,,,0.00,pywws,2013-02-04 22:14:00,
2013-02-04 17:19:00,50.2,28.0,30.32,South,180,0.7,1.6,42,0.00,,,0.00,pywws,2013-02-04 22:19:00,
2013-02-04 17:24:00,50.0,27.8,30.33,South,180,0.0,0.7,42,0.00,,,0.00,pywws,2013-02-04 22:24:00,
2013-02-04 17:34:00,50.0,27.8,30.33,SE,135,0.0,0.7,42,0.00,,,0.00,pywws,2013-02-04 22:34:00,
2013-02-04 17:39:00,49.6,28.6,30.33,East,90,0.0,1.6,44,0.00,,,0.00,pywws,2013-02-04 22:39:00,
2013-02-04 17:44:00,49.3,28.3,30.33,East,90,0.0,0.0,44,0.00,,,0.00,pywws,2013-02-04 22:44:00,
2013-02-04 17:49:00,49.1,28.7,30.33,NE,45,0.0,0.0,45,0.00,,,0.00,pywws,2013-02-04 22:49:00,
2013-02-04 17:54:00,48.7,28.9,30.33,NE,45,0.0,0.0,46,0.00,,,0.00,pywws,2013-02-04 22:54:00,
2013-02-04 18:04:00,48.4,28.6,30.33,SE,135,0.0,0.0,46,0.00,,,0.00,pywws,2013-02-04 23:04:00,
2013-02-04 18:08:00,47.8,28.6,30.34,SE,135,0.0,0.0,47,0.00,,,0.00,pywws,2013-02-04 23:08:00,
2013-02-04 18:13:00,47.7,28.9,30.34,NW,315,0.0,0.0,48,0.00,,,0.00,pywws,2013-02-04 23:13:00,
2013-02-04 18:18:00,47.3,29.1,30.34,NW,315,0.0,0.0,49,0.00,,,0.00,pywws,2013-02-04 23:18:00,
2013-02-04 18:23:00,47.5,29.3,30.34,East,90,0.0,0.0,49,0.00,,,0.00,pywws,2013-02-04 23:23:00,
2013-02-04 18:34:00,46.6,29.4,30.34,SE,135,0.0,0.7,51,0.00,,,0.00,pywws,2013-02-04 23:34:00,
2013-02-04 18:39:00,45.7,29.1,30.34,North,0,0.7,0.7,52,0.00,,,0.00,pywws,2013-02-04 23:39:00,
2013-02-04 18:44:00,45.5,28.9,30.34,North,0,0.0,0.0,52,0.00,,,0.00,pywws,2013-02-04 23:44:00,
2013-02-04 18:49:00,45.1,28.6,30.35,SE,135,0.0,0.0,52,0.00,,,0.00,pywws,2013-02-04 23:49:00,
2013-02-04 18:54:00,44.8,28.7,30.35,West,270,0.0,0.0,53,0.00,,,0.00,pywws,2013-02-04 23:54:00,
2013-02-04 19:04:00,44.4,28.8,30.35,SE,135,0.0,0.0,54,0.00,,,0.00,pywws,2013-02-05 00:04:00,
2013-02-04 19:08:00,43.3,28.7,30.36,NE,45,0.0,0.0,56,0.00,,,0.00,pywws,2013-02-05 00:08:00,
2013-02-04 19:13:00,43.5,28.9,30.36,SE,135,0.0,0.0,56,0.00,,,0.00,pywws,2013-02-05 00:13:00,
2013-02-04 19:18:00,43.3,29.6,30.36,SE,135,0.0,0.0,58,0.00,,,0.00,pywws,2013-02-05 00:18:00,
2013-02-04 19:23:00,43.3,30.0,30.36,SW,225,0.0,0.0,59,0.00,,,0.00,pywws,2013-02-05 00:23:00,
2013-02-04 19:34:00,43.0,29.6,30.36,SW,225,0.0,0.0,59,0.00,,,0.00,pywws,2013-02-05 00:34:00,
2013-02-04 19:39:00,42.6,29.7,30.36,SW,225,0.0,0.0,60,0.00,,,0.00,pywws,2013-02-05 00:39:00,
2013-02-04 19:44:00,42.4,29.5,30.37,SW,225,0.0,0.0,60,0.00,,,0.00,pywws,2013-02-05 00:44:00,
2013-02-04 19:49:00,42.1,30.4,30.37,SE,135,0.0,0.0,63,0.00,,,0.00,pywws,2013-02-05 00:49:00,
2013-02-04 19:54:00,41.9,30.2,30.37,SE,135,0.0,0.0,63,0.00,,,0.00,pywws,2013-02-05 00:54:00,
2013-02-04 20:05:00,41.7,30.5,30.37,SE,135,0.0,0.0,64,0.00,,,0.00,pywws,2013-02-05 01:05:00,
2013-02-04 20:10:00,41.2,30.7,30.37,SE,135,0.0,0.0,66,0.00,,,0.00,pywws,2013-02-05 01:10:00,
2013-02-04 20:15:00,41.2,30.7,30.37,SE,135,0.0,0.0,66,0.00,,,0.00,pywws,2013-02-05 01:15:00,
2013-02-04 20:21:00,40.8,30.4,30.36,SE,135,0.0,0.0,66,0.00,,,0.00,pywws,2013-02-05 01:21:00,
2013-02-04 20:31:00,40.6,30.2,30.35,SE,135,0.0,0.0,66,0.00,,,0.00,pywws,2013-02-05 01:31:00,
2013-02-04 20:37:00,40.1,30.0,30.33,SE,135,0.0,0.0,67,0.00,,,0.00,pywws,2013-02-05 01:37:00,
2013-02-04 20:42:00,40.1,30.4,30.32,SE,135,0.0,0.0,68,0.00,,,0.00,pywws,2013-02-05 01:42:00,
2013-02-04 20:47:00,39.6,29.9,30.32,SE,135,0.0,0.0,68,0.00,,,0.00,pywws,2013-02-05 01:47:00,
2013-02-04 20:53:00,39.7,30.1,30.32,SE,135,0.0,0.0,68,0.00,,,0.00,pywws,2013-02-05 01:53:00,
2013-02-04 21:03:00,39.6,30.2,30.32,SE,135,0.0,0.0,69,0.00,,,0.00,pywws,2013-02-05 02:03:00,
2013-02-04 21:09:00,39.2,29.9,30.33,SE,135,0.0,0.0,69,0.00,,,0.00,pywws,2013-02-05 02:09:00,
2013-02-04 21:14:00,39.2,30.3,30.33,SE,135,0.0,0.0,70,0.00,,,0.00,pywws,2013-02-05 02:14:00,
2013-02-04 21:19:00,39.2,30.3,30.34,SE,135,0.0,0.0,70,0.00,,,0.00,pywws,2013-02-05 02:19:00,
2013-02-04 21:25:00,39.2,30.3,30.34,SE,135,0.0,0.0,70,0.00,,,0.00,pywws,2013-02-05 02:25:00,
2013-02-04 21:35:00,39.0,30.1,30.34,SE,135,0.0,0.0,70,0.00,,,0.00,pywws,2013-02-05 02:35:00,
2013-02-04 21:41:00,38.8,30.3,30.35,SE,135,0.0,0.0,71,0.00,,,0.00,pywws,2013-02-05 02:41:00,
2013-02-04 21:46:00,38.7,30.1,30.35,SE,135,0.0,0.0,71,0.00,,,0.00,pywws,2013-02-05 02:46:00,
2013-02-04 21:51:00,38.5,30.3,30.36,SE,135,0.0,0.0,72,0.00,,,0.00,pywws,2013-02-05 02:51:00,
2013-02-04 22:02:00,38.5,30.6,30.36,SE,135,0.0,0.0,73,0.00,,,0.00,pywws,2013-02-05 03:02:00,
2013-02-04 22:07:00,38.8,31.6,30.37,SE,135,0.0,0.0,75,0.00,,,0.00,pywws,2013-02-05 03:07:00,
2013-02-04 22:13:00,38.8,31.3,30.37,SE,135,0.0,0.0,74,0.00,,,0.00,pywws,2013-02-05 03:13:00,
2013-02-04 22:18:00,38.8,31.3,30.37,SE,135,0.0,0.0,74,0.00,,,0.00,pywws,2013-02-05 03:18:00,
2013-02-04 22:23:00,39.0,31.4,30.37,SE,135,0.0,0.0,74,0.00,,,0.00,pywws,2013-02-05 03:23:00,
2013-02-04 22:34:00,39.2,31.6,30.38,SE,135,0.0,0.0,74,0.00,,,0.00,pywws,2013-02-05 03:34:00,
2013-02-04 22:39:00,39.6,31.6,30.39,SE,135,0.0,0.0,73,0.00,,,0.00,pywws,2013-02-05 03:39:00,
2013-02-04 22:45:00,39.6,31.6,30.39,SE,135,0.0,0.0,73,0.00,,,0.00,pywws,2013-02-05 03:45:00,
2013-02-04 22:50:00,39.7,31.8,30.40,SE,135,0.0,0.0,73,0.00,,,0.00,pywws,2013-02-05 03:50:00,
2013-02-04 23:01:00,39.7,31.8,30.40,SE,135,0.0,0.0,73,0.00,,,0.00,pywws,2013-02-05 04:01:00,
2013-02-04 23:06:00,40.1,32.5,30.40,SE,135,0.0,0.0,74,0.00,,,0.00,pywws,2013-02-05 04:06:00,
2013-02-04 23:11:00,40.1,32.2,30.41,SE,135,0.0,0.0,73,0.00,,,0.00,pywws,2013-02-05 04:11:00,
2013-02-04 23:17:00,40.3,32.3,30.42,SE,135,0.0,0.0,73,0.00,,,0.00,pywws,2013-02-05 04:17:00,
2013-02-04 23:22:00,40.3,32.3,30.42,SE,135,0.0,0.0,73,0.00,,,0.00,pywws,2013-02-05 04:22:00,
2013-02-04 23:33:00,40.3,32.3,30.42,SE,135,0.0,0.0,73,0.00,,,0.00,pywws,2013-02-05 04:33:00,
2013-02-04 23:38:00,40.6,32.7,30.43,SE,135,0.0,0.0,73,0.00,,,0.00,pywws,2013-02-05 04:38:00,
2013-02-04 23:49:00,40.5,32.8,30.44,SE,135,0.0,0.0,74,0.00,,,0.00,pywws,2013-02-05 04:49:00,
2013-02-04 23:54:00,40.5,32.8,30.44,SE,135,0.0,0.0,74,0.00,,,0.00,pywws,2013-02-05 04:54:00,